Location: Demre
(36.2444°N, 29.9850°E)
Time: 04:16:12
(UTC+00:00)

Terra - Pass Details

Date: 11 March 2026
Orbit: 687 x 692 km, 98.0° (Epoch: 21 April)

Event Time Altitude Azimuth Distance (km) Brightness Sun altitude
Exits shadow 18:24:49 26° 1° (N) 1,358 3.4 -28.9°
Drops below altitude 10° 18:26:53 10° 354° (N) 2,151 4.6 -29.3°
Sets 18:29:09 0° 352° (N) 3,071 5.5 -29.7°
